This is the latest recevied weather packets stored in our database for station/object AE5HO. If no packets are shown the sender has not sent any weather packets the latest 10 day(s).
| Time | Temp. | Humidity | Pressure | Rain* | Wind** | Luminosity | Snow |
|---|---|---|---|---|---|---|---|
| 1788119004 | 37.78° C | 37% | 1015 hPa | 0 mm | - | 40 W/m² | - |
| 1788118699 | 37.78° C | 36% | 1015 hPa | 0 mm | - | 49 W/m² | - |
| 1788118393 | 37.78° C | 37% | 1014.9 hPa | 0 mm | - | 46 W/m² | - |
| 1788118090 | 37.78° C | 37% | 1015.1 hPa | 0 mm | - | 38 W/m² | - |
| 1788117789 | 37.78° C | 39% | 1014.9 hPa | 0 mm | - | 44 W/m² | - |
| 1788117485 | 37.78° C | 38% | 1015.1 hPa | 0 mm | - | 46 W/m² | - |
| 1788117184 | 37.78° C | 37% | 1015.2 hPa | 0 mm | - | 49 W/m² | - |
| 1788116881 | 37.78° C | 38% | 1015.2 hPa | 0 mm | - | 53 W/m² | - |
| 1788116575 | 37.78° C | 38% | 1015.3 hPa | 0 mm | - | 61 W/m² | - |
| 1788116274 | 37.22° C | 38% | 1015.3 hPa | 0 mm | - | 42 W/m² | - |
| 1788115969 | 36.67° C | 40% | 1015.3 hPa | 0 mm | - | 42 W/m² | - |
| 1788115669 | 36.67° C | 40% | 1015.5 hPa | 0 mm | - | 43 W/m² | - |
| 1788115368 | 36.67° C | 40% | 1015.7 hPa | 0 mm | - | 43 W/m² | - |
| 1788115064 | 37.22° C | 41% | 1015.6 hPa | 0 mm | - | 44 W/m² | - |
| 1788114758 | 36.67° C | 41% | 1015.7 hPa | 0 mm | - | 106 W/m² | - |
| 1788114459 | 36.67° C | 41% | 1015.8 hPa | 0 mm | - | 49 W/m² | - |
| 1788114155 | 36.11° C | 45% | 1015.9 hPa | 0 mm | - | 83 W/m² | - |
| 1788113851 | 35.56° C | 45% | 1015.8 hPa | 0 mm | - | 48 W/m² | - |
| 1788113546 | 35.56° C | 46% | 1016.2 hPa | 0 mm | - | 53 W/m² | - |
| 1788113245 | 35.56° C | 44% | 1016.1 hPa | 0 mm | - | 53 W/m² | - |
| 1788112940 | 36.11° C | 44% | 1016.4 hPa | 0 mm | - | 111 W/m² | - |
| 1788112640 | 36.11° C | 42% | 1016.1 hPa | 0 mm | - | 56 W/m² | - |
| 1788112335 | 36.67° C | 43% | 1016.3 hPa | 0 mm | - | 71 W/m² | - |
| 1788112029 | 36.11° C | 42% | 1016.4 hPa | 0 mm | - | 50 W/m² | - |
| 1788111726 | 36.11° C | 42% | 1016.5 hPa | 0 mm | - | 51 W/m² | - |
* Rain latest hour (hover to see other rain measurements)
** Current wind speed in m/s (hover to see current wind gust speed)